Regional Weather Roundup
Issued by NWS Upton, NY

Current Version | Previous Version | Graphics & Text | Print | Product List | Glossary Off
Versions: 1 2 3 4 5 6 7 8 9 10 11 12 13 14 15 16 17 18 19 20 21 22 23 24 25 26 27

000
ASUS41 KOKX 221209
RWROKX

REGIONAL WEATHER ROUNDUP
NATIONAL WEATHER SERVICE NEW YORK NY
800 AM EDT SUN OCT 22 2017

NOTE: "FAIR" INDICATES FEW OR NO CLOUDS BELOW 12,000 FEET WITH NO
SIGNIFICANT WEATHER AND/OR OBSTRUCTIONS TO VISIBILITY.

NYZ071-072-176-178-NJZ106-104-221300-
NEW YORK CITY METRO AREA

CITY           SKY/WX    TMP DP  RH WIND       PRES   REMARKS
Central Park   PTCLDY    58  51  78 CALM      30.42R
Bronx Bot Gard   N/A     54  50  87 NW1       30.42R
LaGuardia APRT MOCLDY    60  54  80 E3        30.39R
Kennedy INTL   MOCLDY    53  50  89 CALM      30.41R
Breezy Point     N/A     59 N/A N/A SW5         N/A
Newark/Liberty MOCLDY    54  49  83 CALM      30.40R
Teterboro      PTCLDY    50  45  83 CALM      30.40R
$$

NYZ177-179-078>081-221300-
LONG ISLAND NEW YORK

CITY           SKY/WX    TMP DP  RH WIND       PRES   REMARKS
Jones Beach      N/A     59 N/A N/A MISG        N/A
Matinecock PT    N/A     57 N/A N/A SW2         N/A
Farmingdale    PTCLDY    51  48  89 CALM      30.40R
MacArthur/ISP  MOCLDY    50  49  96 CALM      30.40R
Shirley        PTCLDY    48  47  96 CALM      30.41R
Mt Sinai Harb    N/A    N/A N/A N/A S2          N/A
Westhampton    CLEAR     42  40  92 CALM      30.42R
East Hampton   FAIR      43  42  96 CALM      30.40R
Montauk          N/A     57  57 100 CALM      30.41R
$$

NYZ052-065-067-221300-
HUDSON VALLEY

CITY           SKY/WX    TMP DP  RH WIND       PRES   REMARKS
White Plains   CLEAR     52  47  83 W6        30.39R
Larchmont Harb   N/A     52 N/A N/A W1          N/A
Croton On Huds   N/A     50 N/A N/A NE5         N/A
Newburgh       PTCLDY    45  43  93 CALM      30.41R
Montgomery     CLOUDY    41  40  96 CALM      30.40R
Poughkeepsie   PTCLDY    40  38  93 CALM      30.41R
Albany         PTCLDY    42  40  92 CALM      30.41R
$$

NJZ001-105-106-008-010-013-015-019>022-104-221300-
NEW JERSEY

CITY           SKY/WX    TMP DP  RH WIND       PRES   REMARKS
Newark/Liberty MOCLDY    54  49  83 CALM      30.40R
Teterboro      PTCLDY    50  45  83 CALM      30.40R
Caldwell       PTCLDY    44  44 100 CALM      30.42R
Somerville     PTCLDY    41  41 100 MISG      30.39R
Linden         FAIR      50  45  82 CALM      30.41R
Perth Amboy      N/A     50 N/A N/A W5          N/A
Sussex         PTCLDY    39  39 100 CALM      30.42R
Andover          N/A     43  42  97 CALM      30.42R
Trenton        PTCLDY    48  45  89 CALM      30.40R
Millville      FOG       47  47 100 CALM      30.41R VSB<1/4
Atlantic City  FOG       49  49 100 CALM      30.41R VSB<1/4
Wrightstown      N/A     44  44  98 CALM      30.38R
Toms River     FOG       44  43  96 CALM      30.42R VSB<1/4
Belmar         CLEAR     49  45  86 CALM      30.42R
$$

PAZ047>061-062-071-221300-
EASTERN PENNSYLVANIA

CITY           SKY/WX    TMP DP  RH WIND       PRES   REMARKS
Philadelphia   FOG       52  50  93 CALM      30.41R VSB 1/4
Allentown      PTCLDY    45  42  89 CALM      30.41R
Scranton       PTCLDY    46  42  86 CALM      30.41R
$$

CTZ002-004>006-009-010-012-RIZ004-006-007-MAZ004-011-015-221300-
SOUTHERN NEW ENGLAND
 IN CT

CITY           SKY/WX    TMP DP  RH WIND       PRES   REMARKS
Bradley INTL   MOCLDY    44  42  93 CALM      30.41R
Hartford       PTCLDY    46  45  96 CALM      30.41R
Danbury        PTCLDY    41  40  96 CALM      30.42R
Wtrbury/Oxford CLOUDY    45  43  93 CALM      30.41R
Norwalk Harbor   N/A     50 N/A N/A N3          N/A
Bridgeport     PTCLDY    51  47  86 N3        30.40R
Meriden        MOCLDY    45  44  97 CALM      30.41R
New Haven      PTCLDY    46  44  93 CALM      30.40R
Chester        FAIR      52  46  82 CALM      30.40R
Groton         MOCLDY    50  47  89 CALM      30.40R
Wilimantic     PTCLDY    44  42  93 CALM      30.42R

 IN RI

CITY           SKY/WX    TMP DP  RH WIND       PRES   REMARKS
Providence     MOCLDY    50  49  96 NW3       30.40R
Block Island   MOCLDY    59  58  96 SW6       30.40R
Westerly       CLOUDY    47  45  93 CALM      30.40R
 IN MA

CITY           SKY/WX    TMP DP  RH WIND       PRES   REMARKS
Boston         CLEAR     59  46  62 W5        30.39R
Worcester      PTCLDY    57  41  55 W7        30.40R
Westfield      MOCLDY    42  42 100 CALM      30.41R
Provincetown   MOCLDY    52  50  93 CALM      30.40R
Nantucket      PTCLDY    59  59 100 SW6       30.40R
$$

ANZ330-335-338-340-345-350-353-355-221300-
COASTAL MARINE OBSERVATIONS


STATION/POSITION TIME  SKY/WX   TEMP    WIND        PRES    VSBY  WAVE
                                AIR SEA DIR/SP/G                  HT/PER
                 (UTC)          (F)     (DEG/KT/KT) (MB)    (MI)  (FT/S)
NY HARB ENTRANCE 1050            63 64  200/  4/  6 1028.3          1/ 8
20 S FIRE ISLAND 1050            63 64  250/  2/  4 1028.9          2/ 9
GREAT SOUTH BAY  1130            57 61   40/  2/  2   N/A
15 E BARNEGAT LI NOT AVBL
HUDSON CANYON    1050            63 64  150/  2/  4 1028.6          2/10
KINGS POINT      1148            56 65   CALM  /  1 1029.9
EXECUTION ROCKS  1130            59     360/  2/  4   N/A
WESTERN LI SOUND 1049            58     320/  4/  4   N/A           0
CENTRAL LI SOUND 1130            63     270/  4/  6   N/A           0
EASTERN LI SOUND NOT AVBL
ROBBINS REEF     1148            56     280/  6/  7 1029.9
$$


>>>>>>>>>>>>>>>>>>>>>>>>>>>> KEY <<<<<<<<<<<<<<<<<<<<<<<<<<<
>                                                          <
>     SKY/WX - Sky Condition/Present Weather               <
>     TMP    - Temperature in Fahrenheit                   <
>     DP     - Dew Point in Fahrenheit                     <
>     RH     - Relative Humidity in Percent                <
>     WIND   - Direction (from) and Speed in MPH           <
>     PRES   - Mean Sea Level Pressure (inches of Hg)      <
>     WCI    - Wind Chill Index                            <
>     VSB    - VISIBILITY IN MILES                         <
>     HX     - HEAT INDEX                                  <
>     TC     - TEMPERATURE IN CELSIUS                      <
>     VRB    - VARIABLE WIND DIRECTION                     <
>                                                          <
>>>>>>>>>>>>>>>>>>>>>>>>>>>> KEY <<<<<<<<<<<<<<<<<<<<<<<<<<<




USA.gov is the U.S. government's official web portal to all federal, state and local government web resources and services.